Change the Weather History Date:

Saturday, July 13, 2013

  Actual Average Record
Temperature  
Mean Temperature 74 °F 79 °F  
Max Temperature 79 °F 88 °F 99 °F (1914)
Min Temperature 68 °F 69 °F 53 °F (1963)
Degree Days  
Heating Degree Days 0 0  
Month to date heating degree days 0 0  
Since 1 June heating degree days 0 6  
Since 1 July heating degree days 0 0  
Cooling Degree Days 9 14  
Month to date cooling degree days 159 176  
Year to date cooling degree days 608 642  
Since 1 June cooling degree days 458 483  
Growing Degree Days 24 (Base 50)    
Moisture  
Dew Point 68 °F    
Average Humidity 85    
Maximum Humidity 93    
Minimum Humidity 76    
Precipitation  
Precipitation 0.02 in 0.15 in 3.20 in (2010)
Month to date precipitation 4.24 1.74  
Year to date precipitation 30.96 22.17  
Sea Level Pressure  
Sea Level Pressure 30.11 in    
Wind  
Wind Speed 9 mph (ENE)    
Max Wind Speed 16 mph    
Max Gust Speed 29 mph    
Visibility 6 miles    
Events Fog , Rain    
T = Trace of Precipitation, MM = Missing Value Source: NWS Daily Summary

Daily Weather History Graph

Daily Weather History Graph

Search for Another Location

Airport or City:

Trip Planner

Search our weather history database for the weather conditions in past years. The results will help you decide how hot, cold, wet, or windy it might be!

Date:

Astronomy

Jul. 13, 2013 Rise Set
Actual Time 6:13 AM EDT 8:37 PM EDT
Civil Twilight 5:43 AM EDT 9:07 PM EDT
Nautical Twilight 5:07 AM EDT 9:43 PM EDT
Astronomical Twilight 4:26 AM EDT 10:23 PM EDT
Moon 11:16 AM EDT (7/13) 11:29 PM EDT (7/13)
Length of Visible Light 15h 23m
Length of Day
14h 24m
Waxing Crescent, 25% of the Moon is Illuminated
Jul 13
Waxing Crescent
Jul 15
First Quarter
Jul 22
Full
Jul 29
Last Quarter
Aug 6
New

Hourly Weather History & Observations

Time (EDT) Temp. Dew Point Humidity Pressure Visibility Wind Dir Wind Speed Gust Speed Precip Events Conditions
12:04 AM 68.0 °F 66.2 °F 94% 30.06 in 10.0 mi Calm Calm - N/A   Mostly Cloudy
12:54 AM 69.1 °F 64.9 °F 87% 30.03 in 10.0 mi NNE 6.9 mph - N/A   Overcast
1:54 AM 69.1 °F 64.9 °F 87% 30.03 in 10.0 mi NE 10.4 mph - N/A   Overcast
2:54 AM 68.0 °F 66.0 °F 93% 30.03 in 7.0 mi NE 8.1 mph - N/A   Overcast
3:54 AM 68.0 °F 66.0 °F 93% 30.04 in 6.0 mi NNE 4.6 mph - N/A   Overcast
4:54 AM 68.0 °F 66.0 °F 93% 30.05 in 5.0 mi NNE 4.6 mph - 0.00 in Rain Light Rain
5:49 AM 68.0 °F 66.2 °F 94% 30.07 in 3.0 mi NE 5.8 mph - 0.00 in   Overcast
5:54 AM 68.0 °F 66.9 °F 96% 30.05 in 3.0 mi NE 6.9 mph - 0.00 in   Overcast
6:39 AM 68.0 °F 66.2 °F 94% 30.08 in 2.0 mi NNE 6.9 mph - N/A   Overcast
6:50 AM 68.0 °F 66.2 °F 94% 30.09 in 1.2 mi NNE 5.8 mph - N/A   Overcast
6:54 AM 68.0 °F 66.9 °F 96% 30.06 in 1.2 mi NNE 4.6 mph - N/A   Overcast
7:25 AM 68.0 °F 66.2 °F 94% 30.09 in 0.5 mi NE 8.1 mph - N/A Fog Fog
7:40 AM 68.0 °F 66.2 °F 94% 30.10 in 1.2 mi NE 6.9 mph - 0.00 in Rain Light Rain
7:54 AM 69.1 °F 66.9 °F 93% 30.08 in 1.8 mi NE 8.1 mph 28.8 mph 0.00 in   Overcast
8:14 AM 69.8 °F 66.2 °F 88% 30.11 in 3.0 mi NE 9.2 mph - N/A   Overcast
8:54 AM 69.1 °F 68.0 °F 96% 30.10 in 4.0 mi NE 9.2 mph - 0.00 in Rain Light Rain
9:50 AM 69.8 °F 68.0 °F 94% 30.15 in 2.5 mi ENE 5.8 mph - 0.00 in Rain Light Rain
9:54 AM 69.1 °F 68.0 °F 96% 30.13 in 2.5 mi ENE 5.8 mph - 0.00 in Rain Light Rain
10:08 AM 69.8 °F 69.8 °F 100% 30.14 in 4.0 mi ENE 9.2 mph - 0.00 in Rain Light Rain
10:25 AM 71.6 °F 69.8 °F 94% 30.14 in 6.0 mi ENE 8.1 mph - 0.00 in   Overcast
10:54 AM 71.1 °F 68.0 °F 90% 30.13 in 8.0 mi ENE 9.2 mph - 0.00 in Rain Light Rain
11:09 AM 71.6 °F 68.0 °F 88% 30.15 in 8.0 mi East 8.1 mph - 0.00 in   Overcast
11:40 AM 71.6 °F 68.0 °F 88% 30.15 in 10.0 mi ENE 9.2 mph - 0.00 in   Overcast
11:47 AM 71.6 °F 68.0 °F 88% 30.16 in 7.0 mi ENE 9.2 mph - 0.00 in   Overcast
11:54 AM 72.0 °F 69.1 °F 91% 30.14 in 6.0 mi ENE 8.1 mph - 0.00 in   Overcast
12:54 PM 73.9 °F 68.0 °F 82% 30.12 in 10.0 mi NE 8.1 mph - 0.00 in   Overcast
1:54 PM 73.0 °F 69.1 °F 87% 30.13 in 4.0 mi ENE 11.5 mph - 0.00 in Rain Light Rain
2:13 PM 71.6 °F 69.8 °F 94% 30.15 in 2.5 mi ENE 11.5 mph - 0.00 in Rain Light Rain
2:20 PM 73.4 °F 69.8 °F 88% 30.15 in 3.0 mi ENE 10.4 mph - 0.00 in Rain Light Rain
2:54 PM 75.0 °F 70.0 °F 84% 30.12 in 10.0 mi ENE 10.4 mph - 0.00 in   Overcast
3:06 PM 75.2 °F 69.8 °F 83% 30.14 in 10.0 mi ENE 11.5 mph - N/A   Overcast
3:54 PM 77.0 °F 71.1 °F 82% 30.11 in 10.0 mi ENE 10.4 mph - N/A   Mostly Cloudy
4:01 PM 78.8 °F 71.6 °F 78% 30.14 in 10.0 mi ENE 13.8 mph 18.4 mph N/A   Mostly Cloudy
4:54 PM 77.0 °F 70.0 °F 79% 30.11 in 10.0 mi ENE 11.5 mph - N/A   Overcast
5:54 PM 77.0 °F 71.1 °F 82% 30.10 in 10.0 mi ENE 10.4 mph - N/A   Overcast
6:54 PM 75.9 °F 70.0 °F 82% 30.10 in 10.0 mi East 9.2 mph - N/A   Overcast
7:54 PM 75.9 °F 70.0 °F 82% 30.12 in 10.0 mi East 8.1 mph - N/A   Overcast
8:54 PM 73.9 °F 71.1 °F 91% 30.13 in 10.0 mi ENE 8.1 mph - 0.00 in   Overcast
9:07 PM 75.2 °F 71.6 °F 89% 30.15 in 10.0 mi East 8.1 mph - N/A   Overcast
9:54 PM 75.0 °F 71.1 °F 87% 30.12 in 10.0 mi East 10.4 mph - 0.00 in   Overcast
10:20 PM 73.4 °F 71.6 °F 94% 30.15 in 5.0 mi East 10.4 mph - 0.00 in Rain Light Rain
10:54 PM 73.9 °F 71.1 °F 91% 30.14 in 4.0 mi ESE 13.8 mph - 0.00 in Rain Light Rain
11:54 PM 73.9 °F 71.1 °F 91% 30.14 in 10.0 mi ESE 13.8 mph - 0.02 in   Overcast